www.pogodaiklimat.ru

Погода и климат >> Архив погоды >> Россия >> Коми >> Ираель


ПОГОДА в Ираеле

  • Прогноз погоды в Ираеле
  • Монитор погоды в Ираеле

АРХИВ ПОГОДЫ в Ираеле

Время (UTC), дата Ветер
(напр.,м/с)
 
Видим.   Явления Облачность Т
(С)
Тd
(С)
f
(%)
Тe
(С)
Тes
(С)
Комфортность P
(гПа)
Po
(гПа)
Тmin
(С)
Tmax
(С)
R
(мм)
R24
(мм)
S
(см)
18 16.07 СЗ 3
{11}
4000 м слаб. ливневой дождь {гроза} 10/10 240 м
[Cb cap]
+10.1 +8.8 92 +8 +8 1003.7 984.9
21 16.07 СЗ 2 10 км слаб. ливневой дождь {гроза} 10/8 270 м
[Cb cap Ac und]
+9.5 +8.3 92 +8 +8 1005.7 986.8
00 17.07 СЗ 2 10 км {гроза, ливн. осадки} 10/10 270 м
[Frnb]
+9.7 +8.4 92 +8 +8 1008.0 989.1
03 17.07 СЗ 3 10 км 10/10 270 м
[Frnb]
+10.4 +8.9 90 +8 +8 1010.3 991.4 +9.4 2
06 17.07 СЗ 4 10 км 10/10 480 м
[Sc]
+10.8 +8.6 86 +8 +8 1012.3 993.4
09 17.07 СЗ 4
{10}
10 км 9/4 600 м
[Sc Ac cast]
+14.4 +8.8 69 +13 +15 1013.9 995.2
12 17.07 СЗ 4
{10}
10 км 10/0
[Ac As]
+14.8 +8.2 65 +14 +15 1014.9 996.2
15 17.07 С 2 10 км 10/0
[Ac As]
+14.6 +9.0 69 +14 +15 1015.5 996.8 +15.4
18 17.07 С 2 10 км 9/4 600 м
[Sc Ac As]
+11.9 +8.2 78 +11 +11 1016.4 997.5
21 17.07 С 3 10 км 10/0
[Ac As]
+11.4 +7.9 79 +10 +10 1015.9 997.0
00 18.07 С 4 10 км слаб. ливневой дождь 10/3 600 м
[Cb cap Ac As]
+10.1 +7.0 81 +7 +7 1016.4 997.4
03 18.07 С 4 10 км {ливн. осадки} 10/4 600 м
[Sc Ac As]
+10.7 +7.0 78 +8 +9 1015.8 996.8 +9.7 0.1
06 18.07 С 3 10 км в посл. час ливневой дождь 10/8 900 м
[Cb cap Ac und]
+10.9 +6.5 74 +9 +10 1014.8 995.8
09 18.07 С 2 4000 м слаб. дождь 10/10 270 м
[Frnb]
+10.0 +8.4 90 +8 +8 1014.6 995.5
12 18.07 С 3
{10}
4000 м слаб. дождь 10/10 300 м
[Frnb]
+10.1 +8.7 91 +8 +8 1013.8 994.8
15 18.07 С 3
{11}
2000 м дождь 10/10 240 м
[Frnb]
+8.8 +7.6 92 +6 +6 1013.0 994.0 +11.2 8
18 18.07 С 2 4000 м слаб. дождь 10/9 210 м
[Frnb As op]
+8.2 +7.1 93 +6 +6 1011.9 992.9
21 18.07 С 2 4000 м слаб. дождь 10/9 210 м
[Frnb As op]
+8.0 +7.0 93 +6 +6 1010.7 991.7
00 19.07 СЗ 1 10 км слаб. дождь 10/9 240 м
[Frnb As op]
+7.9 +6.9 93 +7 +7 1010.1 991.0
03 19.07 С 1 10 км слаб. дождь 10/9 180 м
[Frnb As op]
+8.5 +7.5 93 +8 +8 1009.3 990.3 +7.9 5
06 19.07 штиль 0 10 км {дождь} 10/10 270 м
[Frnb]
+9.7 +7.9 89 +9 +9 1009.1 990.2
09 19.07 ЮЗ 1 10 км 10/10 420 м
[Sc]
+10.7 +8.6 87 +10 +10 1009.4 990.5
12 19.07 ЮВ 1 10 км в посл. час ливневой дождь 10/10 270 м
[Cb cap]
+11.2 +8.9 86 +11 +11 1009.8 990.9
15 19.07 Ю 1 10 км в посл. час ливневой дождь 10/8 660 м
[Cb cap Ac und]
+11.8 +9.4 85 +12 +12 1009.8 991.0 +11.9 0.4
18 19.07 Ю 1 10 км в посл. час ливневой дождь 10/10 270 м
[Cb cap]
+10.8 +9.7 93 +10 +10 1010.2 991.3
21 19.07 Ю 1 10 км 10/10 330 м
[Frnb]
+10.4 +9.4 94 +10 +10 1010.1 991.2
00 20.07 Ю 1 10 км 10/10 210 м
[Cb calv]
+10.6 +9.6 94 +10 +10 1010.6 991.8
03 20.07 Ю 2 10 км 10/10 240 м
[St]
+11.4 +10.1 92 +10 +10 1010.7 991.8 +10.4 0.3
06 20.07 Ю 1 10 км 9/8 630 м
[Cb calv Ac cast]
+15.0 +11.6 80 +16 +17 1010.1 991.5
09 20.07 Ю 3 10 км 9/6 960 м
[Cu hum Ci fib]
+20.9 +13.1 61 +24 +27 комфорт 1009.4 991.2
12 20.07 Ю 2 10 км 10/4 1000 м
[Cu hum As trans Cs]
+22.8 +13.3 55 +26 +28 жарко 1009.2 991.1
15 20.07 Ю 2 10 км 8/3 1000 м
[Cu hum Ci fib]
+21.8 +13.0 57 +24 +25 комфорт 1008.8 990.7 +23.0
18 20.07 Ю 2 10 км 6/3 600 м
[Cb calv Ac cast]
+17.9 +13.2 74 +18 +18 1009.8 991.4
21 20.07 Ю 2 10 км 4/0
[Ac trans]
+15.8 +12.6 81 +16 +16 1010.0 991.5
00 21.07 ЮЗ 1 10 км 3/0
[Ac trans]
+11.7 +10.7 94 +11 +12 1010.6 991.8
03 21.07 штиль 0 10 км 4/0
[Ac trans Cc]
+18.7 +13.5 72 +19 +23 1010.5 992.2 +11.6
06 21.07 В 2 10 км 10/0
[Ac trans Cc]
+23.0 +14.0 57 +26 +33 жарко 1010.0 991.9
09 21.07 С 2 10 км 10/4 1000 м
[Cu Sc Cs]
+24.8 +12.1 45 +26 +32 жарко 1009.3 991.3
12 21.07 СВ 2 10 км гроза, ливневой дождь 10/8 720 м
[Cb cap Ac cast Cs]
+23.7 +14.9 58 +27 +27 жарко 1009.2 991.2
15 21.07 С 3 10 км гроза без осадков {ливн. осадки} 10/8 600 м
[Cb cap Ac cuf]
+18.0 +16.1 89 +18 +18 1010.1 991.8 +25.4 2
18 21.07 С 2
{10}
10 км гроза без осадков {ливн. осадки} 9/8 720 м
[Cb cap Ac cast Ci fib]
+16.9 +15.1 89 +17 +17 1010.4 992.0
21 21.07 С 3 10 км {гроза} 10/3 600 м
[Cb calv Ac As]
+14.9 +12.7 87 +14 +14 1010.3 991.7
00 22.07 С 3 10 км {гроза} 10/0
[Ac As]
+13.4 +11.7 89 +12 +12 1010.6 991.9
03 22.07 С 2 10 км слаб. ливневой дождь 10/4 600 м
[Cb cap Ac As]
+12.2 +11.0 92 +11 +12 1010.5 991.7 +12.2 0.1
06 22.07 С 3 10 км слаб. дождь 10/8 210 м
[Frnb Ac As]
+11.4 +10.0 91 +10 +10 1009.9 991.0 +11.4
09 22.07 С 3 4000 м слаб. дождь 10/9 210 м
[Frnb As op]
+12.0 +10.8 92 +10 +10 1008.9 990.1
12 22.07 С 2 4000 м слаб. морось {дождь} 10/10 240 м
[St]
+12.9 +11.7 92 +12 +12 1008.6 989.9
15 22.07 СВ 4 10 км {морось} 10/10 150 м
[St]
+13.8 +12.8 94 +12 +12 1008.2 989.6 +13.8 5
18 22.07 СВ 3 4000 м слаб. дождь {морось} 10/9 150 м
[Frnb As op]
+14.6 +13.7 94 +14 +14 1008.0 989.4
21 22.07 СВ 2 10 км {дождь} 10/10 180 м
[Frnb]
+15.3 +14.4 94 +15 +15 1008.1 989.6
00 23.07 СВ 2 10 км {дождь} 10/10 180 м
[Frnb]
+15.2 +14.3 94 +15 +15 1009.2 990.6
03 23.07 В 3 10 км 10/0
[Ac As]
+17.2 +15.7 91 +17 +18 1010.3 991.9 +13.8 3
06 23.07 В 4 10 км 10/1 1000 м
[Cu hum Ac trans Cs]
+20.9 +15.2 70 +24 +27 комфорт 1011.1 992.9
09 23.07 В 3 10 км 10/3 600 м
[Cu hum Cs]
+23.3 +14.3 57 +27 +32 душно 1011.9 993.8
12 23.07 В 2 10 км 9/3 600 м
[Cu hum Cs]
+25.0 +11.9 44 +27 +30 жарко 1012.2 994.2
15 23.07 В 1 10 км 9/0
[Cs]
+23.5 +12.7 51 +26 +27 жарко 1012.8 994.7 +25.0

 

Местоположение метеостанции Ираель (Коми, Россия): широта 64.52 долгота 55.40 высота над уровнем моря 157 м.

В архиве по умолчанию представлена погода в Ираеле за последнюю неделю. Архивные данные за месяц целиком и за предыдущие месяцы, начиная с января 2011 года, Вы можете получить, выбрав интересующий диапазон дат из раскрывающегося списка и нажав кнопку "Ввод!".


*Определитесь, кто Вы:
робот инопланетянин человек

Внимание! Время в таблицах - всемирное. Для получения местного времени необходимо прибавить поправку, которая равна 3 ч.

Смотрите также архив погоды в соседних городах и на ближайших метеорологических станциях:

Погода в Ижме (Коми, Россия) (88 км)
Погода в Кедва-Воме (Коми, Россия) (94 км)
Погода в Печоре (Коми, Россия) (105 км)
Погода в Усть-Щугоре (Коми, Россия) (110 км)
Погода в Вуктыле (Коми, Россия) (121 км)
Погода в Ухте (Коми, Россия) (133 км)
Погода в Мутном Материке (Коми, Россия) (159 км)
Погода в Усть-Усе (Коми, Россия) (176 км)
Погода в Усть-Цильме (Коми, Россия) (179 км)
Погода в Усинске (Коми, Россия) (191 км)

Пояснения к столбцам:

Ветер - указаны скорость ветра в м/с - средняя за 10 мин, порывы в срок и между сроками (в фигурных скобках) и направление, откуда дует ветер: С - северный, СВ - северо-восточный, В - восточный, ЮВ - юго-восточный, Ю - южный, ЮЗ - юго-западный, З - западный, СЗ - северо-западный.
Видимость - горизонтальная дальность видимости в метрах или километрах. При видимости от 1 до 10 км при отсутствии осадков обычно наблюдается дымка, при ухудшении видимости до 1 км и менее - туман. В сухую погоду видимость может ухудшаться дымом, пылью или мглою.
Явления - указаны атмосферные явления, наблюдавшиеся в срок или в последний час перед сроком; фигурными скобками обозначены явления, наблюдавшиеся между сроками (за 1-3 часа до срока); квадратными скобками обозначены град или гололедные отложения с указанием их диаметра в мм.
Облачность - указаны через наклонную черту общая и нижняя облачность в баллах и высота нижней границы облаков в метрах; квадратными скобками обозначены формы облаков: Ci - перистые, Cs - перисто-слоистые, Cc - перисто-кучевые, Ac - высококучевые, As - высокослоистые, Sc - слоисто-кучевые, Ns - слоисто-дождевые, Cu - кучевые, Cb - кучево-дождевые. Подробнее классификацию облаков см. в Атласе облаков (PDF).
T - Температура воздуха - температура, измеренная на высоте 2 м над землей.
Td - Температура точки росы - температура, при понижении до которой содержащийся в воздухе водяной пар достигнет насыщения.
f - Относительная влажность воздуха - влажноcть воздуха, измеренная на высоте 2 м над землей.
Te - Эффективная температура - температура, которую ощущает одетый по сезону человек в тени. Характеристика душности погоды. При расчете учитывается влияние влажности воздуха и скорости ветра на теплоощущения человека.
Tes - Эффективная температура на солнце - температура, которую ощущает человек, с поправкой на солнечный нагрев. Характеристика знойности погоды. Зависит от высоты солнца над горизонтом, облачности и скорости ветра. Ночью, в пасмурную погоду, а также при ветре 12 м/с и более поправка равна нулю.
P - Атмосферное давление - приведенное к уровню моря атмосферное давление.
Po - Атмосферное давление - измеренное на уровне метеостанции атмосферное давление.
Tmin - Минимальная температура - минимум температуры воздуха на высоте 2 м над землей.
Tmax - Максимальная температура - максимум температуры воздуха на высоте 2 м над землей.
R - Количество осадков - Количество выпавших осадков за период времени, мм. При наведении курсора мыши на число - период времени, за который выпало указанное количество осадков.
R24 - Количество осадков - Количество выпавших осадков за 24 часа, мм.
S - Снежный покров - Высота снежного покрова, см. При наведении курсора мыши на число - состояние снежного покрова и степень покрытия местности в баллах.